GMT,Max TemperatureF,Mean TemperatureF,Min TemperatureF,Max Dew PointF,MeanDew PointF,Min DewpointF,Max Humidity, Mean Humidity, Min Humidity, Max Sea Level PressureIn, Mean Sea Level PressureIn, Min Sea Level PressureIn, Max VisibilityMiles, Mean VisibilityMiles, Min VisibilityMiles, Max Wind SpeedMPH, Mean Wind SpeedMPH, Max Gust SpeedMPH,PrecipitationIn, CloudCover, Events, WindDirDegrees
2010-10-1,60,54,48,57,49,39,100,79,55,29.53,29.35,29.21,6,6,4,25,16,,0.00,4,Rain,201
2010-10-2,59,54,50,50,47,41,88,77,67,29.47,29.42,29.33,6,6,6,15,11,24,0.00,5,Rain,173
2010-10-3,60,54,48,50,48,46,94,81,59,29.42,29.29,29.21,6,6,6,17,7,,0.00,4,Rain,229
2010-10-4,60,53,46,55,48,43,100,81,59,29.44,29.34,29.18,6,6,6,25,11,37,0.00,3,Rain,203
2010-10-5,60,56,51,50,45,41,88,70,51,29.39,29.31,29.21,6,6,6,23,14,33,0.00,4,Rain,202
2010-10-6,60,53,46,50,45,41,88,75,59,29.77,29.52,29.36,6,6,6,22,10,,0.00,3,Rain,208
2010-10-7,62,56,51,54,50,46,88,79,63,29.92,29.87,29.80,6,6,6,24,12,,0.00,3,Rain,144
2010-10-8,66,60,55,59,56,52,100,89,73,29.95,29.86,29.80,6,5,3,23,16,,0.00,5,Rain,108
2010-10-9,59,57,55,57,54,50,100,91,82,29.98,29.95,29.92,6,4,2,23,16,30,0.00,5,,85
2010-10-10,57,55,53,54,51,50,94,88,82,30.09,29.98,29.92,6,6,4,18,14,,0.00,5,,63
2010-10-11,59,52,41,52,48,41,100,88,59,30.21,30.15,30.09,6,6,0,16,9,,0.00,1,Fog,59
2010-10-12,55,47,39,50,46,39,100,94,77,30.21,30.19,30.18,6,4,0,8,3,,0.00,3,Fog,48
2010-10-13,50,49,48,48,48,46,100,94,93,30.24,30.21,30.18,6,4,2,8,5,,0.00,7,,352
2010-10-14,51,50,48,46,45,43,93,86,76,30.27,30.23,30.21,6,6,5,9,6,,0.00,6,Rain,331
2010-10-15,57,50,42,52,46,43,100,85,72,30.24,30.19,30.12,6,6,6,17,8,,0.00,6,,308
2010-10-16,53,45,37,46,42,37,100,89,67,30.33,30.25,30.15,6,6,6,10,8,,0.00,3,,335
2010-10-17,55,46,37,50,44,36,100,87,71,30.33,30.26,30.18,6,6,6,17,9,,0.00,4,,250
2010-10-18,55,52,48,50,47,45,94,86,72,30.18,30.08,29.98,6,6,6,23,15,28,0.00,6,Rain,266
2010-10-19,51,44,37,46,42,36,100,87,66,30.09,29.98,29.92,6,6,6,18,13,29,0.00,4,Rain,290
2010-10-20,48,40,32,39,35,32,100,81,58,30.24,30.19,30.09,6,6,6,14,9,,0.00,3,,277
2010-10-21,53,46,39,43,41,34,100,80,62,30.18,30.13,30.09,6,6,6,22,15,,0.00,5,,250
2010-10-22,53,48,44,50,45,41,94,86,71,30.09,29.87,29.62,6,6,5,21,14,28,0.00,5,Rain,231
2010-10-23,51,46,41,45,43,39,100,91,71,29.86,29.68,29.59,6,6,0,16,12,,0.00,4,Fog-Rain,294
2010-10-24,50,40,30,39,35,30,100,88,66,30.30,30.10,29.89,6,6,6,10,8,,0.00,2,,323
2010-10-25,51,38,26,45,35,27,100,80,50,30.33,30.27,30.09,6,6,5,13,6,,0.00,3,Rain,193
2010-10-26,62,56,51,57,53,45,94,86,72,30.06,29.87,29.71,6,6,6,24,16,41,0.00,6,Rain,212
2010-10-27,57,54,50,55,47,45,94,83,72,29.86,29.79,29.74,6,6,6,26,17,34,0.00,4,Rain,230
2010-10-28,60,53,46,54,48,43,94,82,76,29.80,29.67,29.42,6,6,6,28,15,41,0.00,6,Rain,202
2010-10-29,60,52,44,55,49,43,100,92,77,29.39,29.16,28.91,6,6,2,26,17,40,0.00,6,Rain,214
2010-10-30,55,47,39,45,42,37,100,86,67,29.33,29.26,29.18,6,6,6,14,9,,0.00,4,,204
2010-10-31,51,46,42,50,47,41,100,95,87,29.89,29.58,29.33,6,6,4,15,8,,0.00,6,Rain,9